Date String (YYYY-MM-DD hh:mm:ss) UTC,Instrument flags,absolute air pressure of the measurement (hPa),sample flow rate (lpm),inlet stack bypass flow (lpm),air temperature of the measurement (°C),ambient temperature measured by the external sensor (°C),aerosol sample conditioner tube jacket temperature (°C),OPC LED temperature (°C),internal box temperature (°C),relative humidity of the measurement (%),span deviation,mass concentration of particles derived from Lorenz-Mie calculation of OPC scattering (μg/m³),mass concentration of particles derived from Lorenz-Mie calculation of OPC scattering (μg/m³),mass concentration of particles derived from Lorenz-Mie calculation of OPC scattering (μg/m³)
DateTimeUTC,F1_M11,P_M11,Q1_M11,Q2_M11,T1_M11,T2_M11,T3_M11,T4_M11,T5_M11,U1_M11,ZSPAN_M11,X0_M11,X2_M11,X1_M11
2024-06-12 20:00:00,SystemResetWarning,0829.1,4.99,000.00,028.4,026.4,000.0,036.9,029.7,016.7,0000.0,0010.58,0004.88,0004.39
2024-06-12 20:01:00,SystemResetWarning,0829.1,5.00,000.00,028.5,026.8,000.0,036.9,030.0,016.8,0000.0,0010.59,0004.91,0004.40
2024-06-12 20:02:00,SystemResetWarning,0829.1,5.01,000.00,028.5,027.3,000.0,036.9,030.2,016.3,0000.0,0010.61,0004.92,0004.39
2024-06-12 20:03:00,SystemResetWarning,0829.1,5.01,000.00,028.6,027.6,000.0,036.9,030.3,016.5,0000.0,0010.76,0004.97,0004.40
2024-06-12 20:04:00,SystemResetWarning,0829.1,4.99,000.00,028.7,027.9,000.0,036.9,030.5,016.8,0000.0,0011.09,0004.96,0004.40
2024-06-12 20:05:00,SystemResetWarning,0829.1,5.00,000.00,028.8,028.2,000.0,036.9,030.6,016.6,0000.0,0011.47,0004.97,0004.41
2024-06-12 20:06:00,SystemResetWarning,0829.1,5.00,000.00,028.9,028.4,000.0,036.9,030.7,017.0,0000.0,0011.39,0004.97,0004.41
2024-06-12 20:07:00,SystemResetWarning,0829.1,4.99,000.00,028.9,027.7,000.0,037.0,030.4,017.1,0000.0,0011.13,0004.96,0004.40
2024-06-12 20:08:00,SystemResetWarning,0829.0,5.01,000.00,028.6,025.9,000.0,037.0,029.5,017.6,0000.0,0010.62,0005.00,0004.41
2024-06-12 20:09:00,SystemResetWarning,0829.0,5.02,000.00,028.4,025.7,000.0,037.0,029.4,017.2,0000.0,0011.02,0005.01,0004.41
2024-06-12 20:10:00,SystemResetWarning,0828.9,5.00,000.00,028.4,026.3,000.0,036.9,029.6,016.9,0000.0,0011.85,0005.04,0004.40
2024-06-12 20:11:00,SystemResetWarning,0829.0,5.00,000.00,028.4,026.7,000.0,036.9,029.9,016.9,0000.0,0012.48,0005.07,0004.39
2024-06-12 20:12:00,SystemResetWarning,0829.0,5.00,000.00,028.5,027.1,000.0,036.8,030.1,016.8,0000.0,0012.66,0005.04,0004.38
2024-06-12 20:13:00,SystemResetWarning,0828.9,5.00,000.00,028.5,027.5,000.0,036.8,030.3,016.9,0000.0,0012.66,0005.02,0004.37
2024-06-12 20:14:00,SystemResetWarning,0828.9,5.00,000.00,028.6,027.8,000.0,036.8,030.4,016.5,0000.0,0012.99,0004.94,0004.35
2024-06-12 20:15:00,SystemResetWarning,0828.9,4.99,000.00,028.7,028.1,000.0,036.9,030.6,016.0,0000.0,0012.79,0004.91,0004.32
2024-06-12 20:16:00,SystemResetWarning,0828.9,4.99,000.00,028.8,028.4,000.0,036.9,030.7,015.8,0000.0,0012.01,0004.90,0004.31
2024-06-12 20:17:00,SystemResetWarning,0828.9,5.00,000.00,028.9,028.5,000.0,036.9,030.7,015.9,0000.0,0011.76,0004.93,0004.31
2024-06-12 20:18:00,SystemResetWarning,0829.0,5.00,000.00,028.8,027.2,000.0,037.0,030.1,016.5,0000.0,0011.88,0004.93,0004.31
2024-06-12 20:19:00,SystemResetWarning,0828.8,5.01,000.00,028.5,025.7,000.0,037.0,029.3,016.9,0000.0,0011.80,0004.91,0004.32
2024-06-12 20:20:00,SystemResetWarning,0828.9,5.01,000.00,028.3,026.1,000.0,037.0,029.5,016.3,0000.0,0011.69,0004.91,0004.33
2024-06-12 20:21:00,SystemResetWarning,0828.9,4.99,000.00,028.4,026.5,000.0,036.9,029.7,016.6,0000.0,0010.90,0004.90,0004.34
2024-06-12 20:22:00,SystemResetWarning,0828.9,5.00,000.00,028.4,027.0,000.0,036.9,030.0,016.3,0000.0,0010.75,0004.89,0004.35
2024-06-12 20:23:00,SystemResetWarning,0829.0,5.01,000.00,028.5,027.4,000.0,036.9,030.2,016.3,0000.0,0010.04,0004.89,0004.38
2024-06-12 20:24:00,SystemResetWarning,0829.0,5.01,000.00,028.6,027.7,000.0,036.8,030.4,016.4,0000.0,0009.95,0004.86,0004.39
2024-06-12 20:25:00,SystemResetWarning,0829.0,5.00,000.00,028.7,028.0,000.0,036.8,030.5,016.5,0000.0,0010.29,0004.89,0004.40
2024-06-12 20:26:00,SystemResetWarning,0829.0,4.99,000.00,028.8,028.3,000.0,036.9,030.6,016.3,0000.0,0009.90,0004.91,0004.42
2024-06-12 20:27:00,SystemResetWarning,0828.8,5.00,000.00,028.9,028.1,000.0,036.9,030.5,016.0,0000.0,0009.89,0004.92,0004.45
2024-06-12 20:28:00,SystemResetWarning,0828.8,4.99,000.00,028.6,026.4,000.0,037.0,029.6,016.2,0000.0,0009.59,0004.93,0004.46
2024-06-12 20:29:00,SystemResetWarning,0828.8,5.02,000.00,028.4,025.7,000.0,037.0,029.3,016.4,0000.0,0010.62,0004.97,0004.47
2024-06-12 20:30:00,SystemResetWarning,0828.8,4.99,000.00,028.3,026.3,000.0,036.9,029.6,017.0,0000.0,0011.02,0005.03,0004.48
2024-06-12 20:31:00,SystemResetWarning,0828.8,5.00,000.00,028.4,026.7,000.0,036.9,029.8,016.5,0000.0,0011.19,0005.05,0004.49
2024-06-12 20:32:00,SystemResetWarning,0828.8,5.00,000.00,028.4,027.1,000.0,036.8,030.0,016.1,0000.0,0011.01,0005.07,0004.50
2024-06-12 20:33:00,SystemResetWarning,0828.8,5.00,000.00,028.5,027.5,000.0,036.8,030.2,015.8,0000.0,0010.94,0005.08,0004.51
2024-06-12 20:34:00,SystemResetWarning,0828.8,5.01,000.00,028.6,027.8,000.0,036.8,030.3,016.0,0000.0,0011.04,0005.08,0004.50
2024-06-12 20:35:00,SystemResetWarning,0828.8,5.01,000.00,028.7,028.1,000.0,036.8,030.5,016.3,0000.0,0011.02,0005.08,0004.49
2024-06-12 20:36:00,SystemResetWarning,0828.8,4.99,000.00,028.8,028.3,000.0,036.9,030.6,016.1,0000.0,0010.49,0005.08,0004.49
2024-06-12 20:37:00,SystemResetWarning,0828.7,4.98,000.00,028.8,027.4,000.0,036.9,030.1,015.8,0000.0,0010.72,0005.08,0004.50
2024-06-12 20:38:00,SystemResetWarning,0828.7,5.00,000.00,028.4,025.6,000.0,037.0,029.3,016.3,0000.0,0011.10,0005.09,0004.50
2024-06-12 20:39:00,SystemResetWarning,0828.7,5.02,000.00,028.2,025.8,000.0,037.0,029.3,016.6,0000.0,0011.11,0005.06,0004.48
2024-06-12 20:40:00,SystemResetWarning,0828.7,4.99,000.00,028.3,026.3,000.0,036.9,029.6,016.9,0000.0,0010.05,0005.07,0004.49
2024-06-12 20:41:00,SystemResetWarning,0828.6,5.00,000.00,028.3,026.8,000.0,036.8,029.8,017.1,0000.0,0009.52,0005.03,0004.47
2024-06-12 20:42:00,SystemResetWarning,0828.7,5.00,000.00,028.4,027.2,000.0,036.8,030.1,015.9,0000.0,0009.72,0004.98,0004.45
2024-06-12 20:43:00,SystemResetWarning,0828.7,5.00,000.00,028.5,027.6,000.0,036.8,030.2,015.5,0000.0,0010.44,0004.97,0004.44
2024-06-12 20:44:00,SystemResetWarning,0828.7,5.01,000.00,028.6,028.0,000.0,036.8,030.4,015.7,0000.0,0010.48,0004.93,0004.42
2024-06-12 20:45:00,SystemResetWarning,0828.7,4.98,000.00,028.7,028.3,000.0,036.8,030.6,016.3,0000.0,0010.54,0004.92,0004.41
2024-06-12 20:46:00,SystemResetWarning,0828.7,4.99,000.00,028.8,028.5,000.0,036.8,030.7,015.5,0000.0,0010.57,0004.93,0004.41
2024-06-12 20:47:00,SystemResetWarning,0828.7,5.00,000.00,028.8,027.8,000.0,036.9,030.3,015.3,0000.0,0010.93,0004.93,0004.40
2024-06-12 20:48:00,SystemResetWarning,0828.6,5.00,000.00,028.5,025.9,000.0,036.9,029.4,015.6,0000.0,0011.86,0004.92,0004.39
2024-06-12 20:49:00,SystemResetWarning,0828.7,5.02,000.00,028.3,025.8,000.0,036.9,029.3,016.1,0000.0,0012.19,0004.93,0004.38
2024-06-12 20:50:00,SystemResetWarning,0828.7,4.99,000.00,028.3,026.3,000.0,036.9,029.6,016.2,0000.0,0012.20,0004.93,0004.37
2024-06-12 20:51:00,SystemResetWarning,0828.7,5.00,000.00,028.3,026.7,000.0,036.8,029.8,016.5,0000.0,0013.06,0004.89,0004.35
2024-06-12 20:52:00,SystemResetWarning,0828.7,5.00,000.00,028.4,027.1,000.0,036.8,030.0,016.0,0000.0,0013.28,0004.83,0004.33
2024-06-12 20:53:00,SystemResetWarning,0828.6,5.00,000.00,028.5,027.6,000.0,036.8,030.2,015.9,0000.0,0013.67,0004.87,0004.32
2024-06-12 20:54:00,SystemResetWarning,0828.7,5.00,000.00,028.6,027.9,000.0,036.8,030.4,015.6,0000.0,0014.11,0004.87,0004.30
2024-06-12 20:55:00,SystemResetWarning,0828.7,5.00,000.00,028.7,028.2,000.0,036.8,030.5,015.3,0000.0,0014.64,0004.88,0004.29
2024-06-12 20:56:00,SystemResetWarning,0828.7,5.00,000.00,028.7,028.3,000.0,036.8,030.6,014.9,0000.0,0014.40,0004.86,0004.28
2024-06-12 20:57:00,SystemResetWarning,0828.7,4.98,000.00,028.6,026.8,000.0,036.9,029.8,015.0,0000.0,0014.65,0004.85,0004.26
2024-06-12 20:58:00,SystemResetWarning,0828.7,5.02,000.00,028.3,025.5,000.0,036.9,029.2,015.5,0000.0,0014.73,0004.83,0004.25
2024-06-12 20:59:00,SystemResetWarning,0828.7,5.00,000.00,028.2,025.9,000.0,036.9,029.4,016.2,0000.0,0013.77,0004.83,0004.23
